Location: �terpigny
(49.8910°N, 2.9249°E)
Time: 05:03:13
(UTC+00:00)

Cosmos 332 Rocket - Pass Details

Date: 31 May 2022
Orbit: 681 x 703 km, 74.0° (Epoch: 06 July)

Event Time Altitude Azimuth Distance (km) Brightness Sun altitude
Exits shadow 23:31:33 31° 145° (SE) 1,197 4.5 -18.0°
Maximum altitude 23:33:04 40° 105° (ESE) 1,013 4.5 -18.0°
Drops below altitude 10° 23:37:32 10° 37° (NE) 2,134 7.0 -18.1°
Sets 23:39:57 0° 30° (NNE) 3,056 8.1 -18.1°
